Location: Campillo
(40.8621°N, 4.2488°W)
Time: 01:20:42
(UTC+00:00)

SJ-6B - Pass Details

Date: 02 October 2021
Orbit: 508 x 581 km, 97.6° (Epoch: 16 October)

Event Time Altitude Azimuth Distance (km) Brightness Sun altitude
Exits shadow 20:42:37 26° 308° (NW) 1,129 4.9 -31.4°
Drops below altitude 10° 20:44:49 10° 331° (NNW) 1,869 6.1 -31.8°
Sets 20:47:04 0° 340° (NNW) 2,759 7.0 -32.1°
